Showing default

BEIDOU 3M16, 43648

Orbit data source: Space-Track

BEIDOU 3M16, 43648 is a payload satellite owned by CNSA (CN) in MEO that was launched on Mon, 15 Oct 2018 UTC via a CHANG ZHENG 3B/YZ-1 launch vehicle from the Xichang Space Center, China (XSC). Payload-class satellites include a variety of spacecraft equipped with specific instruments for various scientific and technological missions. These include communications satellites like Starlink; space stations such as the ISS; scientific satellites like the Hubble; Earth observation satellites from companies like Planet Labs, Umbra, and HawkEye 360; GPS; miniature CubeSats for education and research; and military/defense satellites.

Loading next visibility...
Identifier
43648, 2018-078B
Orbit
MEO
Country
Flag of CNCN / PRC
Related business
Manufacturer
SECM
Mission
Operational Defense Navigation
Bus & Motor
BD-3M/SAR, Unknown motor
Mass
1,014 kg wet, ~850 kg dry
Launch date (UTC)
2018-10-15 (7 years ago)
Launch vehicle
CHANG ZHENG 3B/YZ-1
Launch site
Xichang Space Center, China (XSC)
Object type
Payload
Rocket body
Debris
Shape & HBR
Box + 2 Pan, 5.0 m
Radar Cross Section
8.984 m², Large (>1 m²)

Expand to show TLE details & history
Last TLE update: 1 day ago

TLE from 1 day ago
0 BEIDOU 3M16
1 43648U 18078B   25257.15763461 -.00000052  00000-0  00000-0 0  9991
2 43648  54.3356 309.6546 0002405  30.2438 329.8330  1.86232205 47038
Epoch: 2025-09-14T03:46Z
TLE epoch observation values (Epoch: 2025-09-14T03:46:59.63Z)
Latitude
0.00001°
Longitude
-100.45713°
Altitude
21,522.382 km
Speed
3.78 km/s
True Right ascension
20h 38m 41s
True Declination
0° 00' 00"
Sunlit
Object was in daylight at epoch
Visualization orbit readout
Latitude
Unknown
Longitude
Unknown
Altitude
Unknown
Speed
Unknown
Apparent Right ascension
Unknown
Apparent Declination
Unknown
Sunlit
N/A
Visualization observer readout
Local Sidereal Time
22:47:47
Azimuth
Unknown
Elevation
Unknown
Doppler factor
Unknown
Orbital elements
Apogee altitude
21,534.675 km
Perigee altitude
21,521.252 km
Semi-major axis
27,906.101 km
Eccentricity
0.00024
Inclination
54.3356°
RAAN
309.6546°
Arg. of periapsis
30.2438°
True anomaly
329.81915°
Mean anomaly
329.833°
Eccentric anomaly
329.82607°
Mean motion
0.46558 °/min
Orbital period
773.23 mins
BSTAR
0
Loading maneuver chart data...
Computing Atmospheric mass density...
Loading historical data...
Loading historical data...
Loading historical data...
Loading historical data...
Loading historical data...
Loading historical data...
Loading historical data...
Other satellites on launch #78 in the year 2018 (2018-10-15 UTC)

Documentation

Showing up to 5 results
|